[[{"header":{"parameterUnit":"m.s-1","parameterCategory":1,"la1":30.2991,"la2":30.254,"lo1":-89.0895,"lo2":-89.0444,"dy":0.0017,"dx":0.0017,"nx":28,"ny":28,"refTime":"2024-08-12T21:00:00:Z","depth":0,"parameterNumber":2,"parameterNumberName":"U-component_of_WINDS"},"data":[0,0,0,0,0,0,0,0,0,0,0,0,0,0,0,0,0,0,0,0,0,0,0,0,0,0,0,0,0,0,0,0,0,0,0,0,0,0,0,0,0,0,0,0,0,0,0,0,0,0,0,0,0,0,0,0,0,0,1.9657,1.9659,0,1.9873,1.9875,1.9878,1.9891,1.9888,1.9886,1.9884,2.0117,2.0125,2.0133,0,0,0,0,0,0,0,0,0,0,0,0,0,1.9264,1.9272,1.9657,1.9659,1.9662,1.9872,1.9875,1.9878,1.9891,1.9888,1.9885,1.9882,2.0114,2.0124,2.0134,0,0,0,0,0,0,0,0,0,0,0,0,0,1.9453,1.9274,1.9656,1.9694,1.9699,1.9872,1.9875,1.9879,1.9892,1.9888,1.9885,1.9881,2.011,2.0123,2.0135,2.0289,0,0,2.0174,2.018,0,0,0,0,0,0,0,0,1.9443,1.9468,1.9685,1.9691,1.9698,1.9851,1.9822,2.0017,1.9893,1.9819,1.9884,1.9879,2.0032,2.0051,2.01,2.03,2.031,2.0176,2.0183,2.0189,2.0192,0,0,0,0,0,0,0,1.943,1.9459,1.9743,1.9689,1.9696,1.9703,1.9725,1.9859,1.9944,1.9825,1.9827,1.9851,2.0035,2.0088,2.0106,2.0313,2.0175,2.0187,2.0194,2.0199,2.0648,2.0652,0,0,0,0,0,0,1.9408,1.9448,1.9736,1.9749,1.9558,1.9713,1.9738,1.9806,1.9943,1.996,1.9854,1.9851,2.0068,2.0091,2.0114,2.0301,2.0189,2.0201,2.0208,2.0643,2.0649,2.0653,0,0,0,0,0,0,1.9399,1.9433,1.9727,1.9599,1.9636,1.9723,1.9799,1.9812,1.9865,1.9964,1.9981,1.9892,2.0066,2.0096,2.0244,2.031,2.0206,2.0218,2.0638,2.0645,2.0651,2.0678,0,0,0,0,0,0,1.9388,1.943,1.9488,1.96,1.9643,1.9851,1.9803,1.9819,1.9885,1.9883,2.0005,2.0021,2.0065,2.0225,2.0257,2.0325,2.0228,2.0633,2.0641,2.0649,2.0672,2.0685,2.0696,0,0,0,0,0,1.9374,1.949,1.9491,1.9525,1.9716,1.9855,1.988,1.9925,1.9891,1.995,2.0014,2.0017,2.0296,2.024,2.0276,2.035,2.0629,2.0639,2.0648,2.0667,2.0682,2.0695,0,0,0,0,0,0,1.939,1.9506,1.9508,1.9663,1.9748,1.9857,1.9934,1.9941,2.0041,2.0035,2.009,2.0117,2.0263,2.0321,2.0256,2.0504,2.0459,2.0477,2.0461,2.0477,2.0488,2.0473,2.0239,0,0,0,0,0,1.941,1.9509,1.9607,1.9735,1.9777,1.9847,1.991,1.9936,2.0028,2.0066,2.0141,2.0233,2.0341,2.0412,2.0518,2.0679,2.0706,2.0747,2.0759,2.0768,2.0784,2.0872,2.0891,2.0684,2.0684,2.0684,0,0,1.9456,1.9531,1.9592,1.974,1.9809,1.9913,1.9878,1.9991,2.0069,2.0085,2.0228,2.0285,2.0392,2.0546,2.0619,2.0599,2.0846,2.0781,2.0787,2.0798,2.0884,2.0903,2.092,2.0691,2.069,2.0689,0,0,1.9592,1.9658,1.9771,1.9839,1.9942,1.9988,2.0014,2.0121,2.0158,2.0301,2.0314,2.0409,2.0595,2.0669,2.0732,2.089,2.0897,2.0923,2.0986,2.1072,2.1088,2.1103,2.1159,2.1178,2.0937,2.0937,2.0937,0,1.9637,1.9791,1.9829,1.994,2.0005,2.0017,2.0132,2.0198,2.0332,2.0378,2.0352,2.0583,2.0656,2.0827,2.0865,2.0915,2.0949,2.0911,2.1082,2.1097,2.1111,2.1166,2.1187,2.094,2.0939,2.0939,2.0939,0,1.9841,1.9947,2.0026,2.0149,2.0222,2.0335,2.0393,2.0463,2.0481,2.053,2.0675,2.0761,2.0883,2.0925,2.0947,2.11,2.1084,2.107,2.1027,2.1133,2.1185,2.1206,2.0943,2.0942,2.0942,2.0941,0,0,1.9999,2.0135,2.0164,2.0219,2.0331,2.0415,2.0528,2.0642,2.0701,2.0792,2.0889,2.1043,2.1029,2.1099,2.1129,2.1203,2.1322,2.118,2.1183,2.1203,2.1494,2.1505,2.1529,2.1325,2.1329,2.1333,2.1485,0,2.0147,2.0344,2.0379,2.0552,2.0651,2.0661,2.0759,2.084,2.0887,2.0979,2.1033,2.1141,2.1114,2.1156,2.123,2.1292,2.1381,2.1281,2.1419,2.1423,2.1392,2.1556,2.1569,2.1709,2.1506,2.1509,2.1512,0,2.0349,2.0438,2.0619,2.0713,2.0756,2.0844,2.0949,2.1037,2.1128,2.1157,2.1232,2.1252,2.1371,2.1319,2.1484,2.1415,2.1473,2.1511,2.1518,2.1534,2.1475,2.1578,2.1755,2.1776,2.1545,2.1542,2.154,0,2.0445,2.0611,2.074,2.0786,2.09,2.0961,2.1012,2.1099,2.1164,2.1257,2.13,2.1407,2.1467,2.155,2.1599,2.1557,2.176,2.1713,2.1789,2.1788,2.1834,2.1831,2.2024,2.1869,2.1869,2.1868,2.1868,0,2.0609,2.0719,2.0784,2.0864,2.0987,2.1027,2.115,2.12,2.1276,2.1368,2.1384,2.147,2.1528,2.1622,2.1661,2.1791,2.1818,2.1846,2.1856,2.1846,2.1842,2.1886,2.1878,2.1874,2.1873,2.1872,2.1871,0,2.0739,2.0787,2.0928,2.1021,2.1047,2.1134,2.1216,2.1294,2.1338,2.1454,2.1483,2.1555,2.1666,2.1721,2.1862,2.1887,2.2035,2.2038,2.2003,2.2007,2.208,2.2072,2.2309,2.2342,2.2164,2.2166,2.2167,0,2.0841,2.0926,2.1026,2.1085,2.1135,2.1233,2.1297,2.1339,2.1406,2.1512,2.1579,2.1689,2.178,2.1958,2.2025,2.2131,2.2137,2.2213,2.2154,2.214,2.2139,2.2134,2.2142,2.2224,2.2226,2.2227,2.2229,0,2.1018,2.1035,2.1125,2.1223,2.1298,2.1378,2.1457,2.1506,2.156,2.1635,2.1746,2.1816,2.1955,2.2066,2.2176,2.2231,2.224,2.2245,2.2269,2.2261,2.2237,2.2251,2.2032,2.2241,2.224,2.2239,2.2238,2.2238,2.1138,2.1212,2.1292,2.1391,2.1453,2.1526,2.1602,2.1654,2.1746,2.1859,2.1879,2.1997,2.2083,2.2231,2.2289,2.2384,2.2367,2.2402,2.241,2.2418,2.2422,2.2219,2.2404,2.2404,2.2403,2.2403,2.2403,0,2.1316,2.1366,2.1456,2.1562,2.164,2.1634,2.1721,2.1787,2.1889,2.1967,2.2054,2.218,2.2286,2.2358,2.2465,2.2527,2.2533,2.2554,2.2551,2.2563,2.243,2.2399,2.2546,2.2546,2.2546,2.2546,2.2546,2.2546,2.1417,2.1541,2.1567,2.1722,2.1773,2.1885,2.1934,2.2001,2.2062,2.2201,2.2287,2.2331,2.2407,2.2518,2.2615,2.2634,2.2673,2.2694,2.2712,2.2588,2.2573,2.2559,2.253,2.2702,2.2702,2.2837,2.2838,2.2839]},{"header":{"parameterUnit":"m.s-1","parameterCategory":1,"la1":30.2991,"la2":30.254,"lo1":-89.0895,"lo2":-89.0444,"dy":0.0017,"dx":0.0017,"nx":28,"ny":28,"refTime":"2024-08-12T21:00:00:Z","depth":0,"parameterNumber":3,"parameterNumberName":"V-component_of_WINDS"},"data":[0,0,0,0,0,0,0,0,0,0,0,0,0,0,0,0,0,0,0,0,0,0,0,0,0,0,0,0,0,0,0,0,0,0,0,0,0,0,0,0,0,0,0,0,0,0,0,0,0,0,0,0,0,0,0,0,0,0,2.5804,2.5806,0,2.5948,2.5949,2.5951,2.5982,2.5981,2.598,2.5979,2.6123,2.6127,2.6132,0,0,0,0,0,0,0,0,0,0,0,0,0,2.5549,2.5554,2.5804,2.5806,2.5808,2.5947,2.5949,2.5951,2.5982,2.5981,2.5979,2.5978,2.6121,2.6127,2.6132,0,0,0,0,0,0,0,0,0,0,0,0,0,2.5673,2.5555,2.5804,2.584,2.5844,2.5947,2.5949,2.5952,2.5982,2.5981,2.5979,2.5978,2.6119,2.6126,2.6133,2.6209,0,0,2.6155,2.6158,0,0,0,0,0,0,0,0,2.5666,2.5682,2.5833,2.5837,2.5843,2.5945,2.5912,2.6038,2.5983,2.593,2.5979,2.5977,2.6065,2.6076,2.6106,2.6216,2.6222,2.6156,2.616,2.6163,2.6165,0,0,0,0,0,0,0,2.5657,2.5676,2.5861,2.5835,2.5841,2.5846,2.5862,2.5936,2.6004,2.5934,2.5937,2.5954,2.6067,2.6099,2.611,2.6224,2.6156,2.6162,2.6166,2.6169,2.6396,2.6398,0,0,0,0,0,0,2.5643,2.5669,2.5856,2.5865,2.5749,2.5852,2.587,2.5914,2.6003,2.6016,2.5955,2.5955,2.6088,2.6102,2.6115,2.6207,2.6163,2.617,2.6174,2.6394,2.6396,2.6398,0,0,0,0,0,0,2.5638,2.566,2.585,2.5768,2.5792,2.5858,2.5907,2.5918,2.595,2.6019,2.6031,2.5976,2.6087,2.6105,2.6184,2.6212,2.6173,2.618,2.6392,2.6395,2.6397,2.6392,0,0,0,0,0,0,2.563,2.5657,2.5689,2.5768,2.5797,2.5919,2.5909,2.5922,2.5963,2.5964,2.6042,2.6053,2.6087,2.6173,2.6191,2.6221,2.6185,2.639,2.6394,2.6397,2.639,2.6394,2.6397,0,0,0,0,0,2.5621,2.5682,2.5691,2.5713,2.5838,2.5921,2.5937,2.5976,2.5965,2.5996,2.6039,2.6051,2.6206,2.6181,2.6202,2.6234,2.6389,2.6393,2.6396,2.6388,2.6393,2.6397,0,0,0,0,0,0,2.5605,2.5694,2.5704,2.5793,2.5849,2.5926,2.5967,2.5981,2.6041,2.6039,2.6084,2.6101,2.6176,2.6213,2.6184,2.6309,2.6296,2.6304,2.6283,2.6288,2.6292,2.6282,2.6191,0,0,0,0,0,2.5612,2.5674,2.5747,2.5818,2.5846,2.5901,2.5939,2.5963,2.6023,2.6047,2.6096,2.6152,2.6213,2.6253,2.6313,2.6394,2.641,2.6426,2.643,2.6433,2.6439,2.6481,2.6488,2.6411,2.6411,2.6411,0,0,2.5627,2.5683,2.5719,2.5816,2.5863,2.5923,2.5921,2.5987,2.6031,2.6057,2.6134,2.6171,2.6236,2.6316,2.6354,2.6349,2.6463,2.6438,2.6439,2.6445,2.6485,2.6493,2.6499,2.6414,2.6413,2.6413,0,0,2.5685,2.5735,2.5798,2.5843,2.5913,2.5949,2.5963,2.6037,2.6063,2.6141,2.616,2.6212,2.6317,2.6362,2.6398,2.6466,2.6477,2.6484,2.6504,2.6544,2.655,2.6555,2.6577,2.6584,2.649,2.649,2.649,0,2.5695,2.5789,2.5828,2.5892,2.5932,2.5956,2.6018,2.606,2.6146,2.6172,2.6165,2.6294,2.634,2.6428,2.6444,2.6474,2.6489,2.6476,2.6546,2.6552,2.6557,2.6579,2.6587,2.649,2.649,2.649,2.649,0,2.5796,2.586,2.5902,2.5983,2.6028,2.609,2.6136,2.6176,2.6194,2.6229,2.6305,2.636,2.643,2.6453,2.6473,2.6542,2.6537,2.6537,2.6525,2.6564,2.6585,2.6593,2.649,2.649,2.649,2.649,0,0,2.5853,2.5951,2.5966,2.6,2.6076,2.6126,2.6186,2.6254,2.6286,2.6342,2.6393,2.6478,2.6478,2.6518,2.6542,2.6577,2.6623,2.6573,2.6575,2.6579,2.6699,2.6698,2.6707,2.6631,2.6632,2.6634,2.6693,0,2.5919,2.6031,2.6065,2.6157,2.6214,2.6235,2.6288,2.6338,2.637,2.6422,2.6457,2.6516,2.6512,2.6536,2.6572,2.661,2.6648,2.6606,2.6676,2.6678,2.6659,2.6718,2.6719,2.6772,2.6702,2.6703,2.6704,0,2.6014,2.607,2.6168,2.6231,2.6257,2.6304,2.6366,2.6415,2.647,2.6491,2.6534,2.6554,2.6614,2.6597,2.6679,2.665,2.6679,2.6702,2.6705,2.6713,2.6694,2.6727,2.6791,2.6798,2.6718,2.6716,2.6715,0,2.6043,2.6143,2.6214,2.6243,2.632,2.6351,2.6384,2.6438,2.6475,2.6528,2.6552,2.6611,2.6644,2.6688,2.6721,2.6706,2.6799,2.6786,2.6816,2.6815,2.6836,2.6834,2.6904,2.6855,2.6855,2.6855,2.6854,0,2.6114,2.6172,2.6227,2.6271,2.6335,2.6371,2.6433,2.6466,2.6513,2.6561,2.6582,2.6626,2.6668,2.6716,2.6742,2.6804,2.6819,2.6835,2.6842,2.6834,2.6831,2.6854,2.6851,2.6857,2.6856,2.6856,2.6856,0,2.6159,2.6198,2.6276,2.634,2.6357,2.6402,2.6456,2.6496,2.6527,2.6587,2.6603,2.6652,2.6709,2.6746,2.682,2.6837,2.6904,2.691,2.6886,2.6889,2.6916,2.6912,2.7003,2.7015,2.6958,2.6959,2.6959,0,2.6202,2.6247,2.6315,2.6348,2.6381,2.6435,2.6472,2.6507,2.6544,2.6607,2.6639,2.6698,2.6747,2.6837,2.6877,2.6932,2.6938,2.6966,2.6947,2.6936,2.6937,2.6933,2.6937,2.697,2.697,2.697,2.6971,0,2.6273,2.6289,2.6342,2.6399,2.6442,2.649,2.6537,2.6563,2.6605,2.6645,2.6704,2.6741,2.6814,2.6871,2.6928,2.696,2.6971,2.6976,2.6985,2.6978,2.6961,2.6968,2.6893,2.6974,2.6974,2.6974,2.6973,2.6973,2.6318,2.6357,2.6409,2.6466,2.6504,2.6546,2.6587,2.6621,2.6671,2.6734,2.675,2.681,2.6859,2.6937,2.6969,2.7014,2.7011,2.7025,2.7029,2.7032,2.7031,2.6953,2.7025,2.7025,2.7025,2.7025,2.7025,0,2.6389,2.6422,2.6473,2.6538,2.658,2.6587,2.6637,2.6673,2.6726,2.677,2.6816,2.6881,2.6934,2.6977,2.7031,2.7059,2.7065,2.7072,2.707,2.7076,2.7032,2.7018,2.7065,2.7065,2.7065,2.7065,2.7065,2.7065,2.6431,2.6496,2.6517,2.6599,2.6632,2.6691,2.6719,2.6757,2.6792,2.6863,2.6907,2.6934,2.6976,2.7033,2.7081,2.7091,2.711,2.7115,2.7126,2.7084,2.708,2.7076,2.7062,2.7119,2.7119,2.7167,2.7167,2.7168]}]]